Regional Weather Roundup
Issued by NWS Sterling, VA

Home | Current Version | Previous Version | Text Only | Print | Product List | Glossary On
Versions: 1 2 3 4 5 6 7 8 9 10 11 12 13 14 15 16 17 18 19 20 21 22 23 24 25 26 27 28 29 30 31 32 33 34 35 36 37 38 39 40 41 42 43 44 45 46 47 48 49 50
000
ASUS41 KLWX 220610
RWRLWX

REGIONAL WEATHER ROUNDUP
NATIONAL WEATHER SERVICE BALTIMORE MD/WASHINGTON DC
200 AM EDT FRI AUG 22 2014

Note: "FAIR" indicates few or no clouds below 12,000 feet
with no significant weather and/or obstructions to visibility.
 TC=TEMPERATURE CELSIUS

 * =Non NWS site. Station does not report precipitation (e.g. rain,
    snow, etc.), thunder, or fog.

DCZ001-MDZ009-015-VAZ040>042-051-053>054-220700-
WASHINGTON METRO
  /KDAA//-FT BELVOIR

CITY           SKY/WX    TMP DP  RH WIND       PRES   REMARKS
WASHINGTON NAT MOCLDY    77  67  71 NW5       29.99R
DULLES         FAIR      69  67  93 CALM      29.99F
ANDREWS AFB    MOCLDY    72  71  99 NW7       29.98S
QUANTICO       FAIR      75  71  87 N6        29.98F
COLLEGE PARK*  FAIR      72  72 100 CALM      29.97F
LEESBURG*      MOCLDY    72  70  94 CALM      30.00F
MANASSAS*      FAIR      72  72 100 CALM      29.99S
GAITHERSBURG*  FAIR      70  66  88 W3        30.03S

$$

MDZ006>007-011-014-220700-
BALTIMORE METRO

CITY           SKY/WX    TMP DP  RH WIND       PRES   REMARKS
BWI AIRPORT    FAIR      71  68  90 CALM      29.97S
MD SCIENCE CTR   N/A     77  67  71 MISG      29.97F
MARTIN STATE   CLOUDY    72  72 100 CALM      29.98S FOG
ANNAPOLIS      FAIR      75  72  90 CALM      29.96F
FORT MEADE*    FAIR      68  66  94 CALM      30.00S

$$

MDZ012-015-019>023-220700-
MARYLAND EASTERN SHORE

CITY           SKY/WX    TMP DP  RH WIND       PRES   REMARKS
OCEAN CITY     CLOUDY    77  75  93 S5        29.96F
SALISBURY      CLOUDY    76  72  87 CALM      29.96F
BAY BRIDGE AP*   N/A     75  72  88 CALM      29.96F
CAMBRIDGE*     CLOUDY    77  73  88 SE3       29.94F
EASTON*        LGT RAIN  75  75 100 CALM      30.00S

$$

MDZ017>025-220700-
SOUTHERN MARYLAND

CITY           SKY/WX    TMP DP  RH WIND       PRES   REMARKS
PATUXENT RIVER NOT AVBL
ST INIGOES     FAIR      74  70  87 CALM      29.95F FOG
LEONARDTOWN*   FAIR      73  70  88 CALM      29.98F

$$

MDZ003>005-220700-
NORTH CENTRAL MARYLAND

CITY           SKY/WX    TMP DP  RH WIND       PRES   REMARKS
FREDERICK*     FAIR     N/A N/A N/A CALM      30.01F
HAGERSTOWN APT FAIR      68  65  90 E3        30.00F
WESTMINSTER*   FAIR      72  70  94 CALM      30.00S

$$

MDZ501>502-220700-
WESTERN MARYLAND

CITY           SKY/WX    TMP DP  RH WIND       PRES   REMARKS
OAKLAND*       CLOUDY    63 N/A N/A W5        30.13S FOG
CUMBERLAND*    FAIR      68  64  88 CALM      30.06F

$$

VAZ025>031-220700-
SHENANDOAH VALLEY

CITY           SKY/WX    TMP DP  RH WIND       PRES   REMARKS
WINCHESTER*    FAIR      70  64  83 CALM      30.01F
STAUNTON*      FAIR      68  64  88 CALM      30.07S

$$

WVZ021-048>050-054>055-220700-
EASTERN WEST VIRGINIA PANHANDLE

CITY           SKY/WX    TMP DP  RH WIND       PRES   REMARKS
MARTINSBURG    FAIR      70  64  81 SW3       30.01F
PETERSBURG*    NOT AVBL

$$

VAZ036>039-050-220700-
CENTRAL FOOTHILLS

CITY           SKY/WX    TMP DP  RH WIND       PRES   REMARKS
CHARLOTTESVILL FAIR      72  67  84 S5        30.00F
ORANGE*        CLOUDY    73  70  88 CALM      30.01S

$$

VAZ055>057-220700-
NORTH AND CENTRAL PIEDMONT

CITY           SKY/WX    TMP DP  RH WIND       PRES   REMARKS
FREDERICKSBRG* CLOUDY    77  75  96 CALM      29.97F
STAFFORD*      CLOUDY    73  73 100 CALM      30.02F FOG

$$

NCZ024-NYZ072-PAZ021-071-VAZ022-071-220700-
OTHER REGIONAL OBSERVATIONS

CITY           SKY/WX    TMP DP  RH WIND       PRES   REMARKS
NEW YORK CITY  LGT RAIN  67  65  93 CALM      30.05S FOG
PHILADELPHIA   CLOUDY    73  68  84 NE6       29.98F
PITTSBURGH     CLOUDY    69  67  93 CALM      30.03F
ROANOKE        MOCLDY    72  65  78 W13       30.09F
RICHMOND       CLOUDY    80  69  69 W8        29.97F
RALEIGH        FAIR      76  72  87 CALM      30.04R

$$

ANZ530>537-220700-
MARINE OBSERVATIONS

STATION/POSITION TIME  TEMP    WIND        PRES
                       AIR SEA DIR/SP/G
                 (UTC) (F)     (DEG/KT/KT) (MB)
THOMAS PT LIGHT  0600   76 79  310/  5/  6 1015.2F
BALT KEY BRIDGE  0600   76     230/  5/  5 1014.5F
COVE POINT       0600   76     230/  5/  5 1014.4F
LEWISETTA        0600   76 81  240/  5/  6 1014.2F
SOLOMONS ISLAND  0600      81                N/A
PINEY POINT      0600          280/  5/  6   N/A

$$



USA.gov is the U.S. government's official web portal to all federal, state and local government web resources and services.